Regional Weather Roundup
Issued by NWS Charleston, SC

Current Version | Previous Version | Graphics & Text | Print | Product List | Glossary On
Versions: 1 2 3 4 5 6 7 8 9 10 11 12 13 14 15 16 17 18 19 20 21 22 23 24 25 26 27 28 29 30 31 32 33 34 35 36 37 38 39 40 41 42 43 44 45 46 47 48 49 50
000 ASUS42 KCHS 161212 RWRCHS REGIONAL WEATHER ROUNDUP NATIONAL WEATHER SERVICE CHARLESTON SC 700 AM EST MON JAN 16 2017 NOTE: "FAIR" INDICATES FEW OR NO CLOUDS BELOW 12,000 FEET WITH NO SIGNIFICANT WEATHER AND/OR OBSTRUCTIONS TO VISIBILITY. NOT ALL STATIONS ARE QUALITY CONTROLLED. USE DATA WITH CAUTION... ESPECIALLY DEWPOINT OBSERVATIONS. SCZ027-030-031-034>040-042>050-161300- ...SOUTHEAST SOUTH CAROLINA... CITY SKY/WX TMP DP RH WIND PRES REMARKS N CHARLESTON FOG 57 55 93 NE6 30.32R VSB 1/4 6HR MIN TEMP: 57; 6HR MAX TEMP: 58; WATERFRONT PRK N/A 56 56 100 N6 30.30R MOUNT PLEASANT LGT RAIN 57 57 100 CALM 30.32R VSB 1/4 JOHNS ISLAND FOG 59 59 100 CALM 30.31R VSB<1/4 PINOPOLIS NOT AVBL MONCKS CORNER RAIN 54 54 100 NE3 30.32S VSB 1/2 SUMMERVILLE FOG N/A N/A N/A N3 30.33R VSB 1/4 BEAUFORT MCAS FOG 55 54 96 VRB3 30.31R VSB 3/4 6HR MIN TEMP: 50; 6HR MAX TEMP: 56; BEAUFORT ARPT CLOUDY 54 54 100 NE6 30.30R FOG HILTON HEAD IS MOCLDY 55 55 100 NE6 30.31R WALTERBORO FOG 54 N/A N/A CALM 30.32S VSB 1/4 ALLENDALE CLOUDY 52 52 100 CALM 30.30R FOG ...SOUTHERN MIDLANDS AND PEE DEE... CITY SKY/WX TMP DP RH WIND PRES REMARKS GEORGETOWN FOG 52 52 100 E3 30.34R VSB 1 KINGSTREE FOG 52 52 100 NE3 30.34R VSB 1/2 ORANGEBURG FOG 53 53 100 NE5 30.32R VSB 1/4 6HR MIN TEMP: 52; 6HR MAX TEMP: 55; BARNWELL FOG 50 50 100 CALM 30.32R VSB 1/4 AIKEN FOG 45 45 100 NE3 30.34R VSB 1/4 MANNING FOG 54 52 94 E3 30.34R VSB 3/4 COLUMBIA FOG 56 54 93 E5 30.32R VSB 1/2 6HR MIN TEMP: 55; 6HR MAX TEMP: 58; SUMTER CLOUDY 54 54 100 E3 30.32R FOG 6HR MIN TEMP: 54; 6HR MAX TEMP: 56; FLORENCE FOG 50 50 100 NE7 30.35R VSB 1/2 6HR MIN TEMP: 50; 6HR MAX TEMP: 53; MYRTLE BEACH CLOUDY 54 48 82 NE8 30.37R FOG N MYRTLE BEACH CLOUDY 50 49 96 NE6 30.34S 6HR MIN TEMP: 50; 6HR MAX TEMP: 55; $$ GAZ063-065-086>088-099>101-113>116-118-119-134>141-150-161300- ...SOUTHEAST GEORGIA... CITY SKY/WX TMP DP RH WIND PRES REMARKS SAVANNAH ARPT CLOUDY 53 51 93 W5 30.31R 6HR MIN TEMP: 52; 6HR MAX TEMP: 56; HUNTER AAF CLOUDY 54 54 100 W6 30.28R 6HR MIN TEMP: 53; 6HR MAX TEMP: 55; FORT STEWART MOCLDY 53 52 94 CALM 30.27R 6HR MIN TEMP: 53; 6HR MAX TEMP: 56; STATESBORO MOCLDY 51 51 100 CALM 30.30R SYLVANIA MOSUNNY N/A N/A N/A CALM 30.31R CLAXTON PTSUNNY N/A N/A N/A CALM 30.30R ...CSRA...CENTRAL AND FAR SOUTHEAST GEORGIA... CITY SKY/WX TMP DP RH WIND PRES REMARKS THOMSON MOCLDY 47 47 100 CALM 30.34R AUGUSTA-BUSH MOCLDY 47 45 93 CALM 30.30R FOG 6HR MIN TEMP: 46; 6HR MAX TEMP: 50; AUGUSTA-DANIEL MOCLDY 54 50 86 CALM 30.31R SWAINSBORO FAIR 52 52 100 MISG 30.29S VIDALIA MOCLDY 55 55 100 CALM 30.29R EASTMAN CLOUDY 55 55 100 CALM 30.30S HAZLEHURST FOG 56 56 100 CALM 30.28R VSB 1/4 ALMA MOCLDY 51 51 100 CALM 30.28R 6HR MIN TEMP: 51; 6HR MAX TEMP: 59; WAYCROSS FOG 54 54 100 CALM 30.28R VSB 1/4 JESUP PTSUNNY 52 50 93 CALM 30.29R BAXLEY MOCLDY 54 54 100 CALM 30.28R BRUNSWICK CLOUDY 54 54 100 CALM 30.29R SAINT SIMONS PTCLDY 57 56 96 CALM 30.28R 6HR MIN TEMP: 57; 6HR MAX TEMP: 63; $$ SCZ027-028-034-036>038-045-046-048>050-GAZ119-141-161300- ...LAKE AND SUPPLEMENTAL COASTAL OBSERVATIONS... STATION/POSITION TIME TEMP WIND PRES WAVE SWELL AIR SEA DIR/SP/G HT/PER HT/PER/DIR (UTC) (F) (DEG/KT/KT) (MB) (FT/S) (FT/S/D) WINYAH BAY NOT AVBL LAKE MURRAY 1120 55 80/ 4/ 4 1026.1R ACE BASIN NERRS 1045 53 20/ 2 1026.0 FORT PULASKI 1142 58 54 80/ 6/ 8 1026.0R SAPELO ISLAND 1100 56 CALM 1025.0 $$ ANZ835-935-AMZ111-154-330-350-352-354-370-450-454-472-161300- ...C-MAN AND BUOY OBSERVATIONS... STATION/POSITION TIME TEMP WIND PRES WAVE SWELL AIR SEA DIR/SP/G HT/PER HT/PER/DIR (UTC) (F) (DEG/KT/KT) (MB) (FT/S) (FT/S/D) BUOY 41004 1050 69 71 40/ 6/ 8 1025.1 3/11 3/110/11 BUOY 41008 1050 60 59 50/ 4/ 4 1025.1 2/10 2/110/10 FOLLY BEACH CMAN 1200 55 30/ 7/ 8 1026.9R CAPERS NEARSHORE 1108 53 54 40/ 12/ 16 1026.1R FRIPP NEARSHORE 1108 56 56 60/ 10/ 12 1025.5R STATION/POSITION TIME TEMP WIND PRES WAVE SWELL AIR SEA DIR/SP/G HT/PER HT/PER/DIR (UTC) (F) (DEG/KT/KT) (MB) (FT/S) (FT/S/D) 5E ST. MARYS GA 1130 61 N/A 2/11 2/100/11 FRYING PAN BUOY 1130 64 70 40/ 16/ 19 1026.8R BUOY 41025 1150 57 74 30/ 17/ 19 1028.3R 5/ 6 2/ 90/ 8 CAPE LOOKOUT NC 1200 46 20/ 13/ 16 1028.7R BUOY 41002 1050 68 71 120/ 2/ 4 1026.3 4/11 3/ 60/11 BUOY 41010 NOT AVBL ST AUGUSTINE FL 1200 64 64 50/ 1/ 1 1025.6R $$

USA.gov is the U.S. government's official web portal to all federal, state and local government web resources and services.